Back to catalog

DELTA 1 DEB

AliveSSO
NORAD 37658·DEBRIS·🇺🇸 United States

Launched Mar 5, 1978 from Vandenberg Space Force Base

Loading…

Next Passes (next 24 hours)

TLE

FreshSource: Space-Track

Epoch: Sep 13, 2026, 12:25 UTC

1 37658U 78026JV  26256.51738170 -.00000048  00000-0 -17527-5 0  9996
2 37658  99.1833 158.0689 0065661 170.8341   5.0168 13.99289130185075

Track DELTA 1 DEB in real time with AllMySat

Download on the App Store